Grand Island, NE

9:56 AM CST on January 16, 2018 (GMT -0600)
Central Nebraska Regional

Weather History for KGRI - January, 2012

Change the Weather History Date:

Friday, January 13, 2012

  Actual Average Record
Temperature  
Mean Temperature 26 °F 25 °F  
Max Temperature 41 °F 36 °F 69 °F (1996)
Min Temperature 10 °F 14 °F -20 °F (1964)
Degree Days  
Heating Degree Days 39 40  
Month to date heating degree days 397 520  
Since 1 July heating degree days 2729 3039  
Cooling Degree Days 0 0  
Month to date cooling degree days 0 0  
Year to date cooling degree days 0 0  
Moisture  
Dew Point 11 °F    
Average Humidity 53    
Maximum Humidity 67    
Minimum Humidity 38    
Precipitation  
Precipitation 0.00 in 0.02 in 0.33 in (2001)
Month to date precipitation T 0.21  
Year to date precipitation T 0.21  
Snow  
Snow 0.00 in 0.20 in 4.00 in (1940)
Month to date snowfall T 2.4  
Since 1 July snowfall 8.3 11.7  
Snow Depth 0.00 in    
Sea Level Pressure  
Sea Level Pressure 30.04 in    
Wind  
Wind Speed 9 mph (West)    
Max Wind Speed 22 mph    
Max Gust Speed 28 mph    
Visibility 10 miles    
Events      
T = Trace of Precipitation, MM = Missing Value Source: NWS Daily Summary

Daily Weather History Graph

Daily Weather History Graph

Search for Another Location

Airport or City:

Trip Planner

Search our weather history database for the weather conditions in past years. The results will help you decide how hot, cold, wet, or windy it might be!

Date:

Astronomy

Jan. 13, 2012 Rise Set
Actual Time 7:56 AM CST 5:27 PM CST
Civil Twilight 7:26 AM CST 5:57 PM CST
Nautical Twilight 6:52 AM CST 6:31 PM CST
Astronomical Twilight 6:19 AM CST 7:04 PM CST
Moon 10:44 PM CST (1/13) 10:09 AM CST (1/13)
Length of Visible Light 10h 31m
Length of Day
9h 30m
Waning Gibbous, 78% of the Moon is Illuminated
Jan 13
Waning Gibbous
Jan 16
Last Quarter
Jan 23
New
Jan 30
First Quarter
Feb 7
Full

Hourly Weather History & Observations

Time (CST) Temp. Windchill Dew Point Humidity Pressure Visibility Wind Dir Wind Speed Gust Speed Precip Events Conditions
12:53 AM 12.9 °F -0.2 °F -5.1 °F 45% 30.13 in 10.0 mi WNW 10.4 mph - N/A   Clear
1:53 AM 15.1 °F 5.2 °F -2.9 °F 45% 30.12 in 10.0 mi West 6.9 mph - N/A   Clear
2:53 AM 12.0 °F 1.5 °F -2.0 °F 53% 30.12 in 10.0 mi West 6.9 mph - N/A   Clear
3:53 AM 10.9 °F 0.2 °F -0.9 °F 59% 30.11 in 10.0 mi West 6.9 mph - N/A   Clear
4:53 AM 14.0 °F 6.5 °F 1.0 °F 56% 30.10 in 10.0 mi West 4.6 mph - N/A   Overcast
5:53 AM 12.9 °F 2.6 °F 1.9 °F 62% 30.12 in 10.0 mi West 6.9 mph - N/A   Mostly Cloudy
6:53 AM 15.1 °F 7.7 °F 3.9 °F 61% 30.13 in 10.0 mi West 4.6 mph - N/A   Overcast
7:18 AM 15.8 °F 8.6 °F 6.8 °F 68% 30.03 in 10.0 mi West 4.6 mph - N/A   Mostly Cloudy
7:53 AM 18.0 °F 11.1 °F 8.1 °F 65% 30.12 in 10.0 mi West 4.6 mph - N/A   Mostly Cloudy
8:40 AM 17.6 °F 10.7 °F 10.4 °F 73% 30.04 in 10.0 mi WNW 4.6 mph - N/A   Scattered Clouds
8:53 AM 19.9 °F - 10.0 °F 65% 30.14 in 10.0 mi Calm Calm - N/A   Partly Cloudy
9:53 AM 24.1 °F 18.2 °F 12.9 °F 62% 30.14 in 10.0 mi Variable 4.6 mph - N/A   Clear
10:53 AM 30.0 °F 21.7 °F 18.0 °F 61% 30.13 in 10.0 mi WNW 9.2 mph - N/A   Clear
11:53 AM 32.0 °F 22.5 °F 18.0 °F 56% 30.10 in 10.0 mi WNW 12.7 mph - N/A   Clear
12:53 PM 34.0 °F 27.2 °F 19.0 °F 54% 30.07 in 10.0 mi West 8.1 mph 17.3 mph N/A   Clear
1:53 PM 37.9 °F 31.5 °F 19.0 °F 47% 30.04 in 10.0 mi WNW 9.2 mph - N/A   Partly Cloudy
2:53 PM 37.9 °F 30.9 °F 19.0 °F 47% 30.03 in 10.0 mi West 10.4 mph - N/A   Clear
3:53 PM 41.0 °F 34.3 °F 18.0 °F 40% 30.00 in 10.0 mi WSW 11.5 mph - N/A   Clear
4:53 PM 41.0 °F 35.2 °F 18.0 °F 40% 29.99 in 10.0 mi WSW 9.2 mph - N/A   Partly Cloudy
5:53 PM 36.0 °F 29.6 °F 17.1 °F 46% 29.97 in 10.0 mi SSW 8.1 mph - N/A   Overcast
6:53 PM 32.0 °F 24.8 °F 17.1 °F 54% 29.97 in 10.0 mi South 8.1 mph - N/A   Scattered Clouds
7:53 PM 35.1 °F 26.9 °F 16.0 °F 46% 29.94 in 10.0 mi SSW 11.5 mph - N/A   Mostly Cloudy
8:53 PM 35.6 °F 26.2 °F 15.8 °F 44% 29.85 in 10.0 mi SW 15.0 mph - N/A   Mostly Cloudy
9:53 PM 34.0 °F 24.6 °F 15.1 °F 46% 29.90 in 10.0 mi WSW 13.8 mph - N/A   Partly Cloudy
10:53 PM 35.6 °F 25.9 °F 17.6 °F 48% 29.84 in 10.0 mi West 16.1 mph - N/A   Clear
11:53 PM 39.0 °F 29.6 °F 17.1 °F 41% 29.91 in 10.0 mi WNW 18.4 mph 26.5 mph N/A   Clear